Change the Weather History Date:

Tuesday, August 13, 2013

  Actual Average Record
Temperature  
Mean Temperature 83 °F 80 °F  
Max Temperature 91 °F 88 °F 94 °F (1956)
Min Temperature 75 °F 71 °F 61 °F (1954)
Degree Days  
Heating Degree Days 0 0  
Month to date heating degree days 0 0  
Since 1 June heating degree days 0 1  
Since 1 July heating degree days 0 0  
Cooling Degree Days 18 15  
Month to date cooling degree days 211 195  
Year to date cooling degree days 1393 1285  
Since 1 June cooling degree days 1137 1042  
Growing Degree Days 32 (Base 50)    
Moisture  
Dew Point 75 °F    
Average Humidity 78    
Maximum Humidity 87    
Minimum Humidity 68    
Precipitation  
Precipitation 1.03 in 0.22 in 5.04 in (1953)
Month to date precipitation 4.66 2.91  
Year to date precipitation 27.95 33.06  
Snow  
Snow 0.00 in - - ()
Month to date snowfall 0.0  
Since 1 July snowfall 0.0  
Snow Depth 0.00 in    
Sea Level Pressure  
Sea Level Pressure 29.88 in    
Wind  
Wind Speed 6 mph (SSW)    
Max Wind Speed 25 mph    
Max Gust Speed 33 mph    
Visibility 8 miles    
Events Rain , Thunderstorm    
T = Trace of Precipitation, MM = Missing Value Source: NWS Daily Summary

Daily Weather History Graph

Daily Weather History Graph

Search for Another Location

Airport or City:

Trip Planner

Search our weather history database for the weather conditions in past years. The results will help you decide how hot, cold, wet, or windy it might be!

Date:

Astronomy

Aug. 13, 2013 Rise Set
Actual Time 6:26 AM EDT 7:58 PM EDT
Civil Twilight 5:59 AM EDT 8:25 PM EDT
Nautical Twilight 5:27 AM EDT 8:57 PM EDT
Astronomical Twilight 4:53 AM EDT 9:31 PM EDT
Moon 1:01 PM EDT (8/13) 11:50 PM EDT (8/13)
Length of Visible Light 14h 25m
Length of Day
13h 31m
Waxing Crescent, 41% of the Moon is Illuminated
Aug 13
Waxing Crescent
Aug 14
First Quarter
Aug 20
Full
Aug 28
Last Quarter
Sep 5
New

Hourly Weather History & Observations

Time (EDT) Temp. Heat Index Dew Point Humidity Pressure Visibility Wind Dir Wind Speed Gust Speed Precip Events Conditions
1:54 AM 77.0 °F - 71.1 °F 82% 29.96 in 10.0 mi Calm Calm - N/A   Clear
2:54 AM 75.9 °F - 72.0 °F 87% 29.94 in 10.0 mi Calm Calm - N/A   Clear
3:49 AM 78.8 °F - 73.4 °F 83% 29.93 in 10.0 mi SSW 13.8 mph 17.3 mph N/A Thunderstorm Partly Cloudy
3:54 AM 78.1 °F - 73.0 °F 84% 29.93 in 10.0 mi SW 13.8 mph 19.6 mph N/A Thunderstorm Partly Cloudy
4:16 AM 75.2 °F - 71.6 °F 89% 29.93 in 1.8 mi SSW 25.3 mph 33.4 mph 0.14 in Rain , Thunderstorm Heavy Thunderstorms and Rain
4:30 AM 75.2 °F - 69.8 °F 83% 29.93 in 3.0 mi SSE 10.4 mph 23.0 mph 0.28 in Rain , Thunderstorm Light Thunderstorms and Rain
4:54 AM 77.0 °F - 69.1 °F 76% 29.95 in 10.0 mi NW 9.2 mph 17.3 mph 0.28 in Thunderstorm Overcast
5:50 AM 75.2 °F - 73.4 °F 94% 29.95 in 9.0 mi NNE 4.6 mph - 0.09 in Rain Light Rain
5:54 AM 75.9 °F - 73.0 °F 91% 29.95 in 10.0 mi NNE 5.8 mph - 0.09 in Rain Light Rain
6:32 AM 75.2 °F - 73.4 °F 94% 29.94 in 10.0 mi South 3.5 mph - 0.00 in   Mostly Cloudy
6:50 AM 75.2 °F - 73.4 °F 94% 29.93 in 10.0 mi Calm Calm - 0.00 in   Scattered Clouds
6:54 AM 75.9 °F - 73.0 °F 91% 29.92 in 10.0 mi SSW 3.5 mph - 0.00 in   Partly Cloudy
7:54 AM 78.1 °F - 73.9 °F 87% 29.91 in 10.0 mi South 3.5 mph - N/A   Clear
8:30 AM 78.8 °F - 75.2 °F 89% 29.92 in 10.0 mi SSW 4.6 mph - N/A   Mostly Cloudy
8:51 AM 80.6 °F 86.2 °F 75.2 °F 84% 29.92 in 10.0 mi SSW 5.8 mph - 0.01 in   Overcast
8:54 AM 80.1 °F 85.4 °F 75.9 °F 87% 29.93 in 10.0 mi SSW 5.8 mph - 0.01 in   Overcast
9:27 AM 82.4 °F 90.9 °F 77.0 °F 84% 29.92 in 10.0 mi SW 8.1 mph - N/A   Scattered Clouds
9:54 AM 84.0 °F 94.8 °F 78.1 °F 82% 29.92 in 10.0 mi WSW 9.2 mph - N/A   Scattered Clouds
10:54 AM 88.0 °F 101.3 °F 78.1 °F 72% 29.92 in 10.0 mi WSW 10.4 mph - N/A   Scattered Clouds
11:54 AM 90.0 °F 102.5 °F 77.0 °F 65% 29.91 in 10.0 mi WSW 9.2 mph 16.1 mph N/A   Scattered Clouds
12:25 PM 84.2 °F 94.1 °F 77.0 °F 79% 29.89 in 1.2 mi SSW 8.1 mph - 0.16 in Rain Heavy Rain
12:28 PM 82.4 °F 90.9 °F 77.0 °F 84% 29.90 in 5.0 mi SSW 9.2 mph - 0.17 in Rain , Thunderstorm Heavy Thunderstorms and Rain
12:42 PM 80.6 °F 86.2 °F 75.2 °F 84% 29.90 in 5.0 mi SW 6.9 mph - 0.19 in Rain , Thunderstorm Light Thunderstorms and Rain
12:54 PM 82.0 °F 90.2 °F 77.0 °F 85% 29.89 in 5.0 mi South 8.1 mph - 0.19 in Thunderstorm Unknown
1:19 PM 86.0 °F 99.3 °F 78.8 °F 79% 29.88 in 10.0 mi South 4.6 mph - N/A   Clear
1:54 PM 88.0 °F 101.3 °F 78.1 °F 72% 29.88 in 10.0 mi WNW 10.4 mph 19.6 mph N/A Thunderstorm Clear
2:18 PM 84.2 °F 90.9 °F 73.4 °F 70% 29.87 in 10.0 mi NW 4.6 mph - N/A   Mostly Cloudy
2:54 PM 88.0 °F 97.5 °F 75.0 °F 65% 29.85 in 10.0 mi Calm Calm - N/A   Clear
3:17 PM 89.6 °F 99.8 °F 75.2 °F 62% 29.84 in 10.0 mi Calm Calm - N/A Thunderstorm Mostly Cloudy
3:41 PM 89.6 °F 102.2 °F 77.0 °F 66% 29.84 in 2.5 mi Calm Calm - N/A Thunderstorm Haze
3:50 PM 89.6 °F 102.2 °F 77.0 °F 66% 29.83 in 7.0 mi Variable 4.6 mph - N/A Thunderstorm Mostly Cloudy
3:54 PM 88.0 °F 100.2 °F 77.0 °F 70% 29.83 in 7.0 mi North 6.9 mph - N/A Thunderstorm Thunderstorm
4:33 PM 87.8 °F 99.7 °F 77.0 °F 70% 29.81 in 10.0 mi East 8.1 mph - N/A   Overcast
4:54 PM 90.0 °F 104.5 °F 78.1 °F 68% 29.82 in 10.0 mi Variable 3.5 mph - N/A Thunderstorm Mostly Cloudy
5:37 PM 82.4 °F 89.5 °F 75.2 °F 79% 29.81 in 10.0 mi Variable 3.5 mph - N/A Thunderstorm Thunderstorm
5:54 PM 82.9 °F 90.8 °F 75.9 °F 79% 29.81 in 10.0 mi ENE 3.5 mph - N/A Thunderstorm Thunderstorm
6:54 PM 80.1 °F 85.1 °F 75.0 °F 85% 29.82 in 10.0 mi NE 8.1 mph - 0.01 in Thunderstorm Mostly Cloudy
7:03 PM 80.6 °F 86.2 °F 75.2 °F 84% 29.82 in 10.0 mi East 6.9 mph - N/A   Mostly Cloudy
7:10 PM 78.8 °F - 75.2 °F 89% 29.83 in 10.0 mi East 4.6 mph - N/A   Partly Cloudy
7:54 PM 79.0 °F - 75.0 °F 88% 29.83 in 10.0 mi Calm Calm - N/A   Partly Cloudy
8:33 PM 78.8 °F - 75.2 °F 89% 29.82 in 10.0 mi Calm Calm - N/A Thunderstorm Thunderstorm
8:44 PM 78.8 °F - 75.2 °F 89% 29.85 in 1.8 mi WSW 11.5 mph 26.5 mph 0.16 in Rain , Thunderstorm Heavy Thunderstorms and Rain
8:54 PM 77.0 °F - 73.9 °F 90% 29.83 in 2.5 mi South 4.6 mph - 0.24 in Rain , Thunderstorm Light Thunderstorms and Rain
9:01 PM 77.0 °F - 73.4 °F 89% 29.83 in 10.0 mi South 4.6 mph - 0.00 in Rain , Thunderstorm Light Thunderstorms and Rain
9:31 PM 77.0 °F - 73.4 °F 89% 29.85 in 10.0 mi Calm Calm - 0.00 in   Clear
9:54 PM 77.0 °F - 73.9 °F 90% 29.85 in 10.0 mi South 3.5 mph - 0.00 in   Clear
10:54 PM 77.0 °F - 75.9 °F 96% 29.83 in 9.0 mi Calm Calm - 0.01 in Rain Light Rain
11:54 PM 77.0 °F - 73.9 °F 90% 29.83 in 10.0 mi SW 6.9 mph - 0.01 in   Partly Cloudy